Regional Weather Roundup
Issued by NWS San Diego, CA

Home | Current Version | Previous Version | Text Only | Print | Product List | Glossary On
Versions: 1 2 3 4 5 6 7 8 9 10 11 12 13 14 15 16 17 18 19 20 21 22 23 24 25 26 27
000
ASUS46 KSGX 010011
RWRSGX

SAN DIEGO HOURLY WEATHER ROUNDUP
NATIONAL WEATHER SERVICE SAN DIEGO CA
500 PM PDT TUE MAY 31 2016

NOTE: "FAIR" INDICATES FEW OR NO CLOUDS BELOW 12,000 FEET WITH NO
SIGNIFICANT WEATHER AND/OR OBSTRUCTIONS TO VISIBILITY.

CAZ042-043-060-061-PZZ750-775-010100-

GREATER SAN DIEGO AREA

CITY           SKY/WX    TMP DP  RH WIND       PRES   REMARKS
LINDBERGH FLD  CLOUDY    65  57  75 W6        29.87F
POINT LOMA       N/A     64  57  78 W12         N/A
NATIONAL CITY    N/A     66  60  81 W2        29.87F
IMPERIAL BEACH CLOUDY    67  57  70 W9        29.87F
BROWN FIELD    CLOUDY    62  57  83 W7        29.86F
MIRAMAR MCAS   CLOUDY    67  57  70 W9        29.86S
MONTGOMERY FLD CLOUDY    65  57  75 W9        29.86F

$$

NORTH SAN DIEGO COUNTY

CITY           SKY/WX    TMP DP  RH WIND       PRES   REMARKS
CAMP PENDLETON PTSUNNY   67  59  75 SW6       29.85F
OCEANSIDE AP   CLOUDY    66  57  72 W10       29.85S
OCEANSIDE HBR    N/A     64  61  90 SW10      29.88F
VISTA            N/A     66  59  80 SW5       29.83F
CARLSBAD       CLOUDY    63  59  87 SW8       29.85S
DEL MAR          N/A     64  60  86 CALM      29.89S
LA JOLLA SCRIP   N/A     62  59  91 SW1       29.86F
FALLBROOK        N/A     71  62  72 S6        29.82F
ESCONDIDO        N/A     71  61  70 SW10      29.86F
SAN MARCOS       N/A     65  55  69 W5        29.84S
POWAY            N/A     72  60  66 W8        29.86F

$$

EAST SAN DIEGO COUNTY

CITY           SKY/WX    TMP DP  RH WIND       PRES   REMARKS
RAMONA         SUNNY     72  57  59 W9        29.85F
SANTEE LAKES     N/A     69  60  73 S12       29.84S
LA MESA          N/A     66  59  79 W3        29.79F
JAMUL            N/A     69  60  74 W1        29.84S
DESCANSO N       N/A     75  59  58 CALM      29.69F
MT. LAGUNA OBS   N/A     73  31  21 NE3       29.63F
CAMPO            N/A     76  56  49 SW16      29.83S

$$

ORANGE COUNTY AND THE LOS ANGELES BASIN

CITY           SKY/WX    TMP DP  RH WIND       PRES   REMARKS
JOHN WAYNE AP  PTSUNNY   66  56  70 SW9       29.85S
LAKE FOREST FR   N/A     73  56  56 SW5       29.73S
HUNTINGTON BCH   N/A     67  60  78 SW5       29.87F
LOS ALAMITOS   PTSUNNY   68  57  69 S8        29.84F
FULLERTON      SUNNY     70  57  63 VRB7      29.83F
LONG BEACH     MOSUNNY   67  57  70 S7        29.84F
L.A. AP        CLOUDY    65  57  75 W12       29.85S
L.A. DOWNTOWN  PTSUNNY   69  58  67 VRB6      29.83F

$$

THE INLAND EMPIRE

CITY           SKY/WX    TMP DP  RH WIND       PRES   REMARKS
CORONA         SUNNY     75  59  57 W13G22    29.81F
CHINO          MOSUNNY   79  56  45 W16       29.83S
ONTARIO        MOSUNNY   77  56  48 W10G20    29.82S
SAN BERNARDINO MOSUNNY   86  52  30 W13       29.81F HAZE
RIVERSIDE AP   MOSUNNY   79  56  45 W13       29.81F
MORENO VALLEY    N/A     84  60  44 W8        27.95F
MARCH ARB      SUNNY     80  57  44 NW13      29.82F
HORSETHIEF CYN   N/A     80  55  41 E8        29.83S
PERRIS           N/A     81  58  44 W8        29.79F
HEMET EAST       N/A     83  53  35 W7        29.70S
FRENCH VALLEY  FAIR      75  55  50 S13       29.84S
TEMECULA         N/A     76  60  57 SW9       29.78S

$$

SAN BERNARDINO AND RIVERSIDE COUNTY MOUNTAINS

CITY           SKY/WX    TMP DP  RH WIND       PRES   REMARKS
BIG BEAR AP    PTSUNNY   72  27  18 NW9       30.12S
PINE COVE        N/A     73  47  38 W2        29.76F

$$

SOUTHERN DESERT INCLUDING THE COACHELLA VALLEY

CITY           SKY/WX    TMP DP  RH WIND       PRES   REMARKS
PALM SPRINGS   MOSUNNY  102  45  14 E12       29.66F HX  98
THOUSAND PALMS   N/A    103  45  13 SE6       29.62F HX  99
PALM DESERT      N/A    101  51  18 SE3         N/A  HX  98
THERMAL        SUNNY    102  38  11 SE12      29.60F HX  96
BLYTHE         SUNNY    101  37  11 S8        29.64F HX  95
IMPERIAL AP    SUNNY    102  41  12 W5        29.62F HX  97
EL CENTRO NAS  MOSUNNY  101  38  11 SE5       29.64F HX  95
YUMA AZ        MOSUNNY   99  37  11 SW10G16   29.66
MEXICALI       SUNNY    100  37  11 SE7       29.65F HX  95

$$

UPPER DESERT

CITY           SKY/WX    TMP DP  RH WIND       PRES   REMARKS
VICTORVILLE AP SUNNY     97  28   9 NE12G17   29.83S
HESPERIA         N/A     95  33  11 N2        29.80F
PALMDALE       SUNNY     97  26   8 NW6       29.81F
LANCASTER      SUNNY     97  41  14 SW22G28   29.80F
EDWARDS AFB    MOSUNNY   98  21   6 VRB5      29.76F
DAGGETT        SUNNY     99  27   8 CALM      29.74F
29 PALMS N     MOSUNNY   99  23   6 NW13G22   29.81F
NEEDLES        SUNNY    107  29   6 NE10      29.64F HX  99

$$

REGIONAL REPORTS

CITY           SKY/WX    TMP DP  RH WIND       PRES   REMARKS
SANTA BARBARA  PTSUNNY   61  55  81 W9        29.85F
SANDBERG       LGT RAIN  85  40  20 N13G22    30.01S
LAS VEGAS NV   MOSUNNY   98  28   8 N8        29.71F
PHOENIX AZ     MOSUNNY   97  25   7 SW9       29.66F
TIJUANA        CLOUDY    63  55  77 W8        29.88F
ENSENADA NW      N/A     62  32  32 NW7       29.84F

$$

OFFSHORE ISLANDS

CITY           SKY/WX    TMP DP  RH WIND       PRES   REMARKS
CATALINA ARPT  SUNNY     62  55  77 VRB5      29.87F
SAN CLEMENTE I CLOUDY    60  54  80 SW7       29.87F
SAN NICOLAS IS CLOUDY   N/A N/A N/A NW16      29.86F

$$

MARINE AND OFFSHORE BUOY REPORTS

STATION/POSITION SKY/WX   TEMP    WIND        PRES    SWELL
                          AIR SEA DIR/SP/G            HT/PER/DIR
                          (F)     (DEG/KT/KT) (MB)    (FT/S/D)
TANNER BANKS               59 61  310/ 14/ 16 1011.3F   5/200/15
S CLEMENTE BASIN           59 63  280/  8/ 10 1011.0F   5/200/15
SAN NICOLAS IS.               59                N/A     5/190/15
SO. S. ROSA ISLA           57 59  300/ 14/ 17 1011.2F   5/190/15
W. S. BARBARA CH           56 56  300/ 16/ 19 1010.7F   3/200/15
M. S. BARBARA CH           57 60  270/ 10/ 12 1011.4F
S. MONICA BASIN            61 64   CALM  /  4 1011.0F   3/190/15
S PEDRO CHANNEL               63                N/A     2/190/15
OCEANSIDE OFFSHR              64                N/A     3/200/15
LA JOLLA 1                 62 63                N/A
SAN DIEGO BAY                 67                N/A
POINT LOMA SOUTH              66                N/A     3/200/15

$$





USA.gov is the U.S. government's official web portal to all federal, state and local government web resources and services.